This is the latest recevied weather packets stored in our database for station/object CT1ETE-13. If no packets are shown the sender has not sent any weather packets the latest 10 day(s).
| Time | Temp. | Humidity | Pressure | Rain* | Wind** | Luminosity | Snow |
|---|---|---|---|---|---|---|---|
| 1777452152 | 15° C | 78% | 1006.9 hPa | 0.25 mm | - | - | - |
| 1777451252 | 15° C | 79% | 1006.9 hPa | 0 mm | - | - | - |
| 1777450352 | 15° C | 80% | 1007 hPa | 0 mm | - | - | - |
| 1777449452 | 15.56° C | 81% | 1007 hPa | 0 mm | - | - | - |
| 1777448552 | 15.56° C | 81% | 1007 hPa | 0 mm | - | - | - |
| 1777447652 | 15° C | 81% | 1006.9 hPa | 0 mm | - | - | - |
| 1777446750 | 15° C | 80% | 1006.8 hPa | 0 mm | - | - | - |
| 1777445851 | 15° C | 79% | 1006.6 hPa | 0 mm | - | - | - |
| 1777444948 | 15° C | 79% | 1006.6 hPa | 0 mm | - | - | - |
| 1777444107 | 15° C | 79% | 1006.4 hPa | 0 mm | - | - | - |
| 1777443145 | 15° C | 80% | 1006.3 hPa | 0 mm | - | - | - |
| 1777442246 | 15° C | 82% | 1006.2 hPa | 0 mm | - | - | - |
| 1777441346 | 15° C | 83% | 1005.9 hPa | 0 mm | - | - | - |
| 1777440445 | 15.56° C | 81% | 1005.8 hPa | 0 mm | - | - | - |
| 1777439546 | 15.56° C | 79% | 1005.6 hPa | 0 mm | - | - | - |
| 1777438646 | 16.11° C | 77% | 1005.6 hPa | 0 mm | - | - | - |
| 1777437746 | 16.11° C | 76% | 1005.5 hPa | 0 mm | - | - | - |
| 1777436905 | 16.11° C | 76% | 1005.7 hPa | 0 mm | - | - | - |
| 1777435945 | 16.11° C | 75% | 1005.9 hPa | 0 mm | - | - | - |
| 1777435043 | 16.67° C | 75% | 1006.1 hPa | 0 mm | - | - | - |
| 1777434204 | 16.67° C | 75% | 1006.2 hPa | 0 mm | - | - | - |
| 1777433242 | 16.67° C | 74% | 1006.3 hPa | 0 mm | - | - | - |
| 1777432338 | 16.11° C | 75% | 1006.3 hPa | 0 mm | - | - | - |
| 1777431438 | 16.11° C | 74% | 1006.4 hPa | 0 mm | - | - | - |
| 1777430536 | 16.67° C | 74% | 1006.5 hPa | 0 mm | - | - | - |
* Rain latest hour (hover to see other rain measurements)
** Current wind speed in m/s (hover to see current wind gust speed)